Location: Bosdarros
(43.2167°N, 0.3667°W)
Time: 01:41:12
(UTC+00:00)

Cosmos 2084 Rocket - Pass Details

Date: 22 April 2021
Orbit: 524 x 656 km, 62.8° (Epoch: 15 May)

Event Time Altitude Azimuth Distance (km) Brightness Sun altitude
Rises 20:53:29 0° 229° (SW) 2,644 6.9 -19.9°
Reaches altitude 10° 20:55:41 10° 234° (SW) 1,762 6.0 -20.2°
Maximum altitude 20:59:32 51° 311° (NW) 673 4.1 -20.7°
Drops below altitude 10° 21:03:29 10° 29° (NNE) 1,808 6.1 -21.3°
Sets 21:05:46 0° 34° (NE) 2,721 7.0 -21.6°
